CZ-6A DEB, 58431

Orbit data source: Space-Track

CZ-6A DEB, 58431 is space debris in SSO originally from a launch on Fri, 11 Nov 2022 UTC launched from the Taiyaun Space Center, China (TSC). Debris objects in space refer to the collection of defunct objects orbiting the Earth. Examples of debris include non-operational satellites, rocket bodies, and fragments generated from explosions, collisions, or faulty payload assembly.

Loading next visibility...
Identifier
58431, 2022-151AHZ
Orbit
SSO
Country
Flag of CNCN / PRC
Related business
Manufacturer
SAST
Mission
Spacecraft
Bus & Motor
Unknown
Mass
Unknown
Launch date (UTC)
2022-11-11 (4 years ago)
Launch vehicle
Unknown
Launch site
Taiyaun Space Center, China (TSC)
Object type
Payload
Rocket body
Debris
Shape & HBR
Unknown shape, 0.1 m
Radar Cross Section
Small (<0.1 m²)

Expand to show TLE details & history
Last TLE update: 4 days ago

TLE from 4 days ago
0 CZ-6A DEB
1 58431U 22151AHZ 26231.99146873  .00003982  00000-0  17296-2 0  9992
2 58431  98.8340 243.6623 0050820 134.0563 226.4817 14.24009876175855
Epoch: 2026-08-19T23:47Z
TLE epoch observation values (Epoch: 2026-08-19T23:47:42.898Z)
Latitude
-0.00005°
Longitude
-81.60343°
Altitude
840.002 km
Speed
7.42 km/s
True Right ascension
16h 14m 38s
True Declination
0° 00' 00"
Sunlit
Object was in daylight at epoch
Visualization orbit readout
Latitude
Unknown
Longitude
Unknown
Altitude
Unknown
Speed
Unknown
Apparent Right ascension
Unknown
Apparent Declination
Unknown
Sunlit
N/A
Visualization observer readout
Local Sidereal Time
19:34:22
Azimuth
Unknown
Elevation
Unknown
Doppler factor
Unknown
Orbital elements
Apogee altitude
845.508 km
Perigee altitude
772.458 km
Semi-major axis
7,187.12 km
Eccentricity
0.00508
Inclination
98.834°
RAAN
243.6623°
Arg. of periapsis
134.0563°
True anomaly
226.06125°
Mean anomaly
226.4817°
Eccentric anomaly
226.27129°
Mean motion
3.56214 °/min
Orbital period
101.06 mins
BSTAR
0.0017296
Loading maneuver chart data...
Computing Atmospheric mass density...
Loading historical data...
Loading historical data...
Loading historical data...
Loading historical data...
Loading historical data...
Loading historical data...
Loading historical data...

Documentation

Showing up to 5 results
|